Theta_e
325 326 326 327 327 326 325 325 325 325 330 332 327 326 332 329 324 331 334 337 339 337 340 349 352 352 348 342 340 338 339 341 341 342 343 343 345 346 346 347 348 349 350 350 350 349 349 350 349 349 349 350 348 342 340 337 332 330 331 331 332 333 332
325 322 325 327 325 328 327 323 325 328 326 334 337 327 326 325 324 330 331 330 331 330 340 359 354 347 352 353 346 338 338 340 340 342 343 343 345 346 346 348 347 349 350 350 350 349 348 349 348 348 348 349 349 344 341 339 334 330 329 329 330 331 330
326 323 322 324 323 324 327 326 327 328 324 327 332 327 326 325 325 330 329 329 332 331 341 355 349 345 350 352 349 344 341 340 339 341 342 343 345 346 347 348 348 349 350 350 350 349 349 348 348 348 348 349 351 348 343 341 337 332 330 330 330 331 329
325 326 320 319 321 322 325 326 325 327 328 327 327 327 328 325 327 333 329 326 332 337 342 347 346 349 348 347 355 352 342 339 339 340 342 343 344 346 347 348 349 350 350 350 350 348 348 348 347 347 348 349 351 350 346 343 341 337 333 331 330 330 329
321 323 322 318 320 322 323 324 323 323 327 328 327 328 330 330 331 335 330 326 336 347 347 345 344 350 349 347 355 352 340 338 340 340 342 342 343 345 346 348 349 350 350 350 350 348 348 348 348 348 349 349 350 351 349 346 343 340 335 331 329 329 328
319 323 328 325 323 325 325 323 324 325 325 326 324 324 328 330 330 335 333 325 334 349 348 342 341 350 351 345 347 348 340 338 340 340 341 342 343 344 345 347 348 349 351 350 350 350 349 351 350 349 350 350 350 352 351 348 345 341 336 330 328 328 329
323 326 329 326 323 325 326 325 325 327 328 326 320 320 328 328 324 331 330 322 333 355 353 343 343 349 348 340 340 343 339 338 341 341 341 342 343 343 344 346 347 348 350 350 350 351 351 351 350 349 349 350 350 351 351 350 347 343 337 331 328 329 329
325 325 326 326 325 325 323 324 325 325 326 326 324 329 335 329 325 329 325 322 342 368 358 347 346 343 341 339 338 339 338 340 341 341 342 342 342 343 344 344 347 348 349 351 351 351 351 351 351 350 350 351 351 351 351 352 349 345 341 335 330 329 330
320 321 323 322 322 324 325 327 327 324 326 327 328 335 333 325 327 330 324 325 342 363 358 349 348 347 346 341 338 339 340 340 341 341 342 342 342 343 344 344 346 348 349 351 351 351 352 351 351 351 351 351 352 352 353 353 351 348 345 341 335 330 329
318 318 320 323 325 327 329 331 327 325 327 325 326 330 325 323 329 330 329 333 342 352 353 347 348 352 352 346 339 339 341 340 341 342 341 342 342 342 344 344 345 346 348 349 349 350 351 351 351 351 350 352 353 354 354 354 353 352 349 347 341 332 330
320 320 327 335 336 328 325 327 326 326 326 324 330 330 324 329 333 330 339 346 336 337 344 344 350 352 352 353 345 339 341 341 341 342 341 342 343 342 343 344 344 346 346 347 348 349 349 350 350 350 351 352 353 354 355 354 355 355 353 351 347 339 334
322 324 331 336 336 326 323 326 325 326 327 325 328 327 326 336 331 325 347 357 333 331 344 346 356 355 351 353 346 338 341 341 341 343 342 342 342 342 344 343 343 345 345 345 347 347 348 348 348 350 350 352 353 354 354 355 356 356 355 354 351 347 342
324 325 326 331 334 328 328 330 326 325 327 325 325 326 331 338 328 324 348 357 337 334 344 342 350 355 350 348 343 339 341 341 341 342 341 342 343 342 343 343 343 344 343 344 345 345 346 347 347 350 350 352 354 354 355 356 357 357 356 355 354 353 351
325 324 323 328 329 327 328 328 328 328 326 325 325 326 331 335 330 331 347 352 341 336 340 341 340 339 337 337 336 338 340 341 341 342 341 343 343 343 343 343 343 344 343 343 343 344 346 346 347 348 349 351 353 353 355 356 357 357 356 356 355 355 354
323 322 324 326 323 325 326 324 329 329 325 326 324 324 330 332 330 333 341 343 341 337 340 341 333 329 334 337 336 337 339 340 341 341 342 343 343 343 343 343 343 343 343 344 343 344 345 344 345 347 348 350 351 353 355 356 356 357 356 357 356 356 356
323 324 324 324 323 324 322 320 326 326 324 327 325 326 335 334 330 335 338 335 336 338 342 340 333 333 340 339 335 334 336 339 341 341 342 343 343 343 343 343 344 343 343 343 343 343 343 343 345 346 347 349 350 351 354 354 356 357 357 357 357 356 356
323 325 324 324 323 320 319 323 324 323 326 329 326 332 342 338 333 335 333 330 336 343 343 340 340 344 345 340 335 334 336 338 341 342 344 343 342 344 343 342 343 343 343 342 341 342 343 343 345 346 347 348 348 349 351 353 355 356 357 357 357 356 355
320 325 326 325 321 319 327 338 333 326 326 326 327 337 344 341 339 342 339 337 345 350 345 342 345 344 339 336 333 333 335 337 339 342 343 342 343 343 342 342 343 343 343 342 343 344 344 344 345 345 345 344 344 346 349 351 353 354 356 356 356 356 355
324 328 325 321 322 327 338 342 336 330 327 328 337 344 342 341 342 348 351 347 349 354 347 337 335 334 332 333 333 334 336 336 337 340 340 341 343 342 342 343 342 343 343 344 344 343 341 340 338 337 336 336 338 342 345 348 350 352 354 355 356 356 355
327 325 320 321 328 336 339 337 337 337 333 333 340 338 336 339 338 341 351 352 348 349 341 330 329 331 332 334 335 335 337 337 336 339 339 340 341 340 341 341 341 342 342 341 340 336 333 332 330 329 330 330 332 335 340 345 348 351 353 354 354 355 354
331 329 323 325 330 333 336 338 338 337 335 337 342 339 334 337 336 335 345 351 346 342 335 329 331 334 336 341 340 336 337 339 339 339 339 340 341 341 341 341 339 338 337 336 335 333 331 331 330 331 332 331 332 334 337 342 346 348 351 352 352 354 353
337 336 329 329 330 330 339 345 337 332 332 333 340 343 337 335 335 333 339 345 343 340 335 331 332 338 347 354 347 337 336 339 340 341 342 342 342 341 339 338 336 335 335 334 335 335 335 334 333 333 334 333 333 334 334 336 338 340 342 346 349 351 352
337 335 333 335 334 334 344 349 338 331 331 330 334 339 336 336 336 331 333 339 338 335 333 331 335 346 354 351 342 337 338 339 339 343 344 342 340 338 336 336 336 335 336 335 336 336 335 334 333 332 332 330 330 330 330 331 332 333 336 342 347 349 350
339 340 339 337 336 337 340 341 335 330 329 329 330 333 335 337 335 329 331 336 334 332 332 333 337 345 346 342 337 338 341 340 340 343 342 338 336 337 337 338 337 337 337 337 337 336 334 333 332 331 331 331 330 329 330 332 332 333 337 342 345 348 348
339 343 340 333 335 339 337 334 331 329 331 332 331 333 335 334 332 331 331 332 332 331 332 334 336 337 336 335 335 336 339 340 341 342 341 338 339 338 338 339 338 338 339 337 336 336 335 334 333 332 333 333 331 331 333 334 335 337 340 343 344 347 348
336 341 344 337 337 338 331 328 329 331 339 344 337 333 334 332 332 334 333 332 333 334 333 334 334 334 334 334 334 333 334 335 336 339 339 338 338 338 338 338 338 338 339 339 338 337 337 336 335 335 335 335 334 335 336 336 338 339 340 342 344 345 346
337 343 347 342 338 334 328 332 340 340 341 342 335 331 332 331 331 331 331 332 333 332 333 333 333 333 333 333 333 333 333 332 333 335 335 333 333 334 335 336 337 337 338 339 339 339 339 339 338 338 337 337 337 338 338 338 339 340 341 343 344 344 344
338 343 344 339 336 331 327 333 341 338 334 333 331 330 329 328 327 327 327 328 328 328 329 329 328 330 329 328 330 332 332 332 332 332 332 332 331 332 332 332 331 331 332 333 335 337 339 340 340 340 340 340 340 340 340 341 341 342 343 343 343 343 343
333 336 337 334 331 329 327 329 332 331 330 329 328 327 326 326 326 326 325 326 326 325 326 325 325 326 325 325 327 329 329 329 329 329 331 330 330 330 330 330 330 329 329 330 331 332 335 338 342 343 342 342 341 341 342 343 343 343 344 344 344 343 342
332 332 332 330 328 327 327 328 327 327 328 327 326 326 327 326 326 326 326 326 327 327 327 326 326 326 325 326 326 326 327 328 327 328 328 328 327 328 328 329 330 330 330 331 331 330 334 339 343 344 344 344 344 344 344 343 343 344 344 344 343 342 341
338 337 336 332 328 327 327 327 327 327 327 326 326 326 326 325 325 326 326 326 327 327 327 327 326 326 326 327 326 325 326 326 325 326 327 326 326 326 326 327 328 328 328 331 331 330 333 337 338 339 340 342 343 344 343 341 341 343 343 343 342 341 340
339 340 335 329 325 324 325 325 326 326 326 326 327 325 325 324 324 324 324 325 325 325 325 325 325 325 325 326 326 325 325 326 326 326 326 327 327 327 327 327 326 326 326 327 328 326 326 328 329 330 334 338 340 342 343 341 340 342 342 342 341 340 339
335 333 330 326 325 326 325 323 324 325 325 325 325 324 324 324 324 323 323 323 323 323 323 323 323 323 324 325 325 325 325 326 327 326 326 327 327 327 329 328 327 326 325 325 327 326 325 326 328 330 335 339 342 343 341 339 339 341 341 340 340 338 338
334 332 329 327 330 331 327 323 323 324 323 324 324 323 323 323 324 324 323 323 323 323 322 323 322 322 323 323 324 325 326 328 329 329 329 330 328 328 331 331 330 329 327 328 328 328 328 330 333 336 338 341 342 340 337 336 337 338 338 337 336 335 335
334 332 327 325 327 328 325 322 323 323 323 324 324 322 323 323 322 323 323 323 323 323 322 322 323 322 322 322 322 324 325 327 328 331 333 334 333 332 333 334 334 334 333 333 333 332 332 334 336 338 339 340 340 338 336 335 335 334 333 332 332 332 332
328 326 324 323 323 323 322 322 323 323 323 324 323 322 322 323 322 323 323 322 322 323 323 323 322 322 323 322 322 323 324 325 327 329 331 333 334 334 335 336 337 336 336 335 336 336 337 336 336 337 338 338 338 337 335 335 333 332 331 330 329 329 329
323 321 321 321 321 321 321 321 321 320 321 322 321 321 321 321 321 322 322 322 322 322 322 322 322 322 322 322 322 323 323 324 326 328 329 331 332 334 335 336 337 337 336 335 336 337 337 337 337 337 337 337 336 334 333 333 332 330 330 330 328 327 326
Wind_Speed
6 8 7 7 7 5 2 3 4 5 6 7 3 2 2 3 2 2 2 3 3 2 6 7 2 4 8 10 14 19 21 19 22 29 33 36 39 42 44 46 47 48 47 48 48 48 48 46 45 44 44 43 42 42 41 41 41 41 42 42 41 39 37
9 11 10 5 7 9 5 4 7 2 3 3 3 2 1 2 3 4 2 5 3 1 3 6 3 6 10 9 8 12 15 18 24 30 34 38 41 43 44 46 48 48 49 49 49 49 48 46 45 44 44 44 44 43 43 43 43 43 44 44 43 41 39
7 7 8 5 6 6 4 5 7 5 3 2 1 3 2 1 3 4 3 3 4 4 4 5 5 9 13 11 7 7 10 17 26 31 35 38 40 40 41 44 46 47 48 49 49 49 48 46 45 44 44 44 45 45 44 44 44 44 45 45 44 42 40
4 4 6 8 8 3 2 4 5 3 3 5 3 3 4 4 4 3 2 3 3 6 7 7 10 12 13 11 8 8 12 21 29 30 32 36 38 40 42 44 46 47 48 50 51 50 49 47 45 44 45 45 46 46 46 46 45 45 45 46 45 44 43
3 4 6 11 11 5 3 4 5 2 1 2 2 2 4 4 4 4 3 3 5 7 6 9 13 12 12 12 11 11 14 23 28 28 31 36 39 41 43 44 46 47 48 50 51 51 50 48 46 46 47 47 47 47 47 47 47 46 47 48 47 47 46
4 7 7 9 11 9 8 6 6 6 4 4 3 4 1 2 3 5 5 4 6 7 6 9 12 10 9 12 12 11 15 22 26 28 34 39 40 42 43 44 45 46 47 48 49 50 50 49 49 48 48 49 49 49 49 49 49 49 49 50 50 50 49
6 9 7 4 7 9 9 7 7 7 6 6 6 6 3 1 1 2 3 3 7 7 5 9 10 8 8 12 12 11 15 23 28 31 36 38 39 41 42 43 44 44 46 47 47 49 50 50 51 50 49 50 50 50 50 50 51 51 51 51 52 52 51
6 8 6 3 2 5 6 6 7 8 8 8 7 6 5 4 3 3 2 3 6 6 3 5 7 7 8 13 17 17 17 22 29 33 34 35 37 39 40 41 42 42 43 44 46 48 49 50 51 51 51 52 52 52 52 52 53 52 52 52 53 54 54
6 7 6 4 2 4 5 5 6 9 11 10 4 3 4 5 6 7 5 4 6 6 3 2 3 6 7 11 18 22 20 22 28 31 33 34 35 36 38 39 40 40 41 43 45 47 49 50 50 51 51 52 52 53 53 53 53 53 53 53 54 55 56
8 8 7 6 4 4 3 3 6 8 10 12 7 3 4 6 5 6 6 5 6 7 4 2 3 6 6 8 13 18 20 22 26 29 31 33 34 36 38 39 39 40 41 42 44 45 47 47 48 49 50 51 51 52 52 53 53 53 53 53 54 55 56
10 9 9 7 5 5 5 5 8 8 9 12 9 5 6 7 4 5 7 7 6 7 6 6 6 6 8 8 9 14 20 22 25 28 31 32 34 36 38 38 39 40 40 41 42 43 44 44 44 45 46 48 49 50 50 51 51 51 51 51 53 55 56
14 13 12 8 6 7 8 8 10 10 10 12 10 7 7 7 7 6 9 6 8 9 9 10 9 7 7 7 9 16 23 25 27 29 29 30 32 35 36 37 39 39 40 41 41 41 41 41 42 43 44 45 46 47 48 48 49 49 50 51 53 55 56
16 16 14 10 8 7 7 8 10 10 11 13 14 12 10 9 8 9 8 9 10 10 10 11 12 11 12 14 19 22 22 22 24 25 27 30 33 35 37 38 39 39 39 40 39 39 40 40 41 41 42 43 44 45 46 46 47 48 50 52 53 54 55
15 16 14 11 11 9 7 7 8 9 10 13 14 13 12 12 12 10 10 13 13 11 10 12 14 15 15 13 16 19 20 22 24 26 29 33 36 39 39 39 39 40 39 39 38 39 39 39 40 40 41 42 42 43 44 44 45 47 49 50 51 51 53
11 12 11 9 11 12 12 12 10 7 8 8 9 8 6 8 10 8 8 10 10 9 8 9 9 10 11 9 12 19 24 26 27 28 31 36 39 40 40 39 39 39 39 38 38 38 39 39 39 39 39 39 39 40 41 42 43 45 46 47 48 49 51
7 7 10 11 9 9 11 14 13 9 7 7 6 5 5 7 8 4 6 7 9 9 6 5 3 6 9 9 12 19 23 26 29 32 36 40 42 41 39 38 39 38 38 39 39 39 39 38 37 36 35 35 36 37 38 39 41 41 42 43 45 47 47
6 6 9 9 6 4 7 11 12 11 9 7 5 3 6 8 6 6 6 7 9 6 6 6 5 6 8 12 17 22 25 30 34 37 40 42 41 39 38 38 38 38 37 37 38 38 36 35 34 32 31 31 31 32 34 36 37 38 39 41 43 43 43
7 6 5 4 4 6 7 7 8 12 13 12 8 4 3 3 2 3 6 7 5 3 7 9 10 8 8 12 18 21 23 28 35 39 39 38 36 35 35 35 35 34 33 33 33 32 28 25 22 20 20 20 21 24 28 31 33 35 36 38 39 40 40
4 1 6 4 5 8 6 2 1 6 11 13 10 6 4 3 4 4 6 7 7 5 7 8 7 5 2 3 6 9 13 20 28 32 33 31 31 32 31 31 31 29 27 26 23 17 11 7 4 4 5 6 10 14 19 23 26 29 32 34 36 37 39
2 2 5 7 7 5 3 3 5 4 5 9 10 7 3 3 3 3 6 7 7 6 7 6 5 8 9 8 6 2 7 13 17 20 25 26 27 26 24 23 20 17 15 13 12 12 11 9 6 3 2 2 5 8 11 16 20 23 27 30 33 35 37
3 3 3 3 1 1 1 2 2 2 3 5 6 4 1 1 3 1 5 6 6 5 4 8 16 17 13 9 9 9 3 8 11 15 19 19 16 14 11 10 11 14 16 16 17 15 12 9 6 3 2 2 4 6 9 12 15 18 21 24 27 30 33
2 4 2 2 2 3 4 4 3 1 1 3 4 5 2 3 7 6 3 4 2 2 3 10 20 17 10 4 7 10 4 6 10 12 13 13 13 15 18 19 19 20 20 19 17 15 11 8 5 5 5 5 4 4 7 8 10 13 15 18 22 26 29
2 5 4 3 4 4 5 6 5 3 3 3 4 5 2 4 10 10 4 1 2 4 4 5 9 10 7 1 5 8 8 6 8 15 20 21 22 23 22 20 19 19 19 17 16 14 10 6 6 5 4 4 3 3 4 5 7 9 12 16 20 23 26
1 4 3 1 2 2 3 4 5 9 8 0 6 5 1 5 10 12 7 3 3 9 15 14 8 6 6 3 4 13 18 15 15 20 23 22 22 20 18 17 19 19 18 16 15 13 8 5 6 6 5 6 6 6 6 7 8 10 13 16 18 20 24
3 1 4 1 2 2 3 6 10 11 7 4 6 5 4 5 10 13 12 11 10 15 22 19 12 9 11 12 14 22 26 24 22 21 20 19 18 16 15 15 16 16 16 14 12 9 6 6 8 8 7 9 11 11 11 11 11 11 13 15 16 19 21
4 0 3 1 2 1 7 15 14 7 4 4 3 3 1 4 11 17 19 19 21 26 27 24 20 18 22 24 27 30 31 30 28 26 23 22 19 17 15 13 11 10 9 7 5 5 5 6 8 8 8 11 13 14 13 11 10 10 11 13 15 16 18
3 1 3 3 1 4 16 20 10 4 4 7 9 8 7 11 19 24 24 25 29 31 31 30 29 29 31 32 31 30 30 30 30 28 26 24 21 19 17 14 11 8 5 2 1 3 4 5 7 8 10 12 14 14 12 10 9 9 10 12 12 13 14
2 1 1 1 4 8 19 14 3 9 11 17 22 15 10 14 23 27 27 29 32 34 33 34 34 35 35 34 32 30 30 29 28 26 24 23 21 19 18 16 14 11 9 8 7 7 7 7 8 10 12 13 13 12 10 9 9 10 10 10 9 9 10
1 2 1 1 1 7 17 16 16 22 22 22 22 21 19 20 25 29 30 30 32 34 34 35 35 33 31 30 30 29 28 27 26 26 24 22 21 19 18 16 13 11 9 8 8 8 8 8 8 9 11 11 11 10 9 8 9 10 11 9 6 6 8
2 4 6 5 6 12 18 19 19 24 25 21 21 25 26 24 24 27 28 27 26 27 27 28 30 27 24 24 25 24 23 22 21 20 19 18 18 16 16 15 12 10 9 8 8 10 11 11 10 9 9 9 10 10 9 9 11 12 10 8 5 6 8
4 3 5 6 7 11 15 15 14 16 19 20 23 26 25 25 25 24 22 21 20 20 20 21 22 20 17 17 18 17 17 15 13 12 11 10 8 9 11 11 9 7 7 7 8 10 12 12 11 12 12 10 11 12 11 11 12 11 9 7 6 7 9
5 4 3 4 12 14 14 15 13 12 14 17 22 25 25 25 26 24 22 21 19 19 20 19 18 18 17 15 13 13 12 11 9 8 8 6 5 7 9 9 6 2 1 2 3 5 9 10 9 11 13 12 13 14 12 10 10 8 6 6 7 8 11
7 7 8 10 14 13 11 14 16 14 15 18 20 22 22 22 22 23 24 23 22 22 22 19 18 20 19 16 14 12 10 9 7 6 5 3 2 2 3 3 3 3 3 2 3 5 8 8 7 9 12 13 14 13 9 7 6 5 5 7 9 10 12
6 5 8 9 10 5 4 11 16 16 18 20 21 21 21 21 21 21 22 22 20 21 21 19 19 21 20 18 16 14 12 10 7 4 2 1 3 4 3 3 2 3 4 2 2 3 6 5 7 11 13 14 13 9 5 4 3 3 5 6 8 10 11
6 7 10 11 11 10 9 13 18 18 17 18 19 19 19 19 19 20 21 21 20 20 20 19 18 19 18 17 15 14 13 10 7 5 4 4 4 4 5 4 3 5 5 3 2 1 1 3 8 11 13 13 11 7 3 1 1 2 4 4 7 8 9
10 13 17 18 17 16 14 17 22 20 18 18 19 19 19 19 18 18 19 20 20 19 18 18 17 17 16 14 13 13 13 11 9 8 7 6 5 4 5 5 4 4 4 3 2 3 5 7 9 11 12 10 9 7 5 3 4 4 3 2 5 8 10
20 22 24 25 26 23 19 21 25 24 22 21 20 18 18 18 16 15 15 17 17 16 16 16 15 15 14 13 12 12 11 11 11 10 9 9 9 8 7 7 6 5 4 3 4 5 8 10 11 11 11 10 10 10 9 9 8 6 2 1 4 8 10
Wind_Direction
200 189 181 160 166 182 181 149 178 208 168 141 152 221 160 124 187 246 192 238 285 305 295 295 277 277 262 239 230 227 226 208 192 200 204 205 208 210 211 212 214 216 217 219 221 222 224 224 224 223 221 220 220 218 217 216 215 214 216 216 217 218 217
237 201 184 201 194 163 133 185 199 168 100 108 123 190 34 76 223 263 193 207 237 183 280 305 286 238 251 251 230 222 216 195 194 204 203 205 210 211 211 213 214 215 215 217 219 221 224 225 225 224 222 221 220 220 220 218 216 214 214 216 216 217 217
229 187 185 247 237 185 149 182 175 139 147 209 139 171 187 158 215 264 282 249 234 198 223 279 261 227 235 242 227 213 203 193 202 207 203 204 209 209 210 212 213 214 214 216 218 220 223 225 226 227 225 224 224 224 223 223 221 218 218 219 218 218 218
189 148 181 220 230 220 69 116 154 148 165 178 182 170 169 187 206 227 275 285 252 228 218 215 224 228 229 228 214 210 207 204 208 207 201 201 205 207 209 211 213 213 213 215 218 221 223 225 227 227 227 228 227 226 226 226 225 223 223 222 220 219 219
183 188 204 208 210 190 134 155 174 181 123 132 183 183 138 155 174 178 204 242 254 247 213 199 218 228 223 214 210 216 214 209 210 205 199 202 205 207 210 211 213 213 213 215 218 221 224 225 226 227 227 228 229 229 228 227 227 226 225 224 222 220 220
204 232 235 213 202 179 166 183 181 176 164 130 181 241 237 130 162 176 181 214 257 250 199 200 218 222 221 216 210 216 216 208 205 203 204 207 208 208 211 213 214 213 214 215 217 219 221 223 225 227 228 229 230 230 229 229 228 227 226 224 223 222 221
225 239 247 224 202 182 174 189 186 176 167 154 183 221 230 179 193 149 139 199 261 258 203 204 217 216 224 223 213 220 217 204 200 204 207 209 210 211 213 214 214 215 215 216 217 219 221 223 226 227 229 230 230 230 230 229 229 228 227 226 225 224 224
254 256 275 297 202 170 186 213 194 181 188 191 193 195 178 186 197 153 140 234 262 276 260 231 227 219 228 225 214 213 211 202 200 204 207 208 210 213 214 214 215 216 216 216 217 218 221 223 225 227 229 230 231 231 231 230 230 230 229 229 228 227 226
245 257 279 281 236 174 197 220 198 193 195 186 169 108 149 207 207 169 169 226 249 271 310 317 230 206 220 231 218 209 202 199 201 203 206 209 210 211 212 213 215 216 216 217 218 220 222 224 226 227 229 231 232 232 231 231 232 232 231 231 230 230 229
215 222 229 231 210 187 218 203 182 192 185 176 168 121 164 220 222 170 172 210 249 275 301 303 231 197 206 233 228 218 208 202 202 203 205 209 210 211 212 213 215 217 218 220 221 223 224 226 228 230 231 233 233 233 232 233 233 233 232 232 232 232 232
207 210 218 219 167 160 205 200 183 185 180 179 174 148 177 196 171 181 208 197 210 252 253 238 236 212 210 219 218 217 213 206 203 204 207 209 211 213 214 214 216 217 220 223 225 226 227 229 231 233 234 235 235 235 235 234 234 233 232 233 233 234 234
211 210 210 203 169 176 196 194 191 191 182 177 176 188 198 164 144 221 247 197 186 223 225 221 228 220 217 222 214 216 214 206 202 204 206 209 213 215 216 215 216 217 221 226 227 228 230 232 233 235 235 236 236 236 236 235 233 233 233 234 234 235 236
217 217 211 192 178 196 194 187 196 197 186 179 186 203 196 158 171 225 221 179 191 220 220 217 218 207 203 209 210 213 215 208 202 200 202 208 213 217 217 216 216 220 224 226 229 231 233 233 234 235 236 236 236 237 237 236 235 234 235 236 236 236 237
226 222 217 195 189 209 213 203 202 194 191 191 197 208 193 178 204 219 185 182 204 218 212 215 221 213 205 202 201 204 208 206 201 198 201 208 214 217 218 218 218 221 224 227 230 233 233 234 236 237 237 238 238 239 239 238 237 237 238 238 238 238 238
239 229 221 205 199 212 222 227 221 193 183 193 210 230 204 190 221 223 168 182 220 234 216 215 227 212 193 180 184 197 205 203 198 198 203 210 215 217 219 219 220 222 224 227 230 232 234 237 238 239 240 241 242 243 242 241 241 241 240 240 240 240 241
245 231 216 214 204 209 229 238 232 211 189 188 204 215 189 191 214 200 143 177 231 243 216 199 210 186 181 191 193 197 203 202 198 200 207 212 215 217 218 220 221 223 224 226 230 233 236 239 241 243 246 247 248 250 248 247 246 243 242 243 243 242 242
257 233 205 203 180 185 239 241 225 211 196 191 196 189 187 189 177 160 177 214 230 214 173 182 203 188 193 211 205 198 199 200 201 206 210 213 214 215 219 222 224 225 226 228 232 235 239 244 248 253 256 258 261 263 258 253 250 248 247 246 245 243 241
251 240 173 142 145 198 238 245 217 205 197 193 191 174 188 211 186 187 224 249 253 181 163 185 202 206 219 229 220 210 203 201 203 208 212 213 212 214 220 224 226 228 229 231 236 241 246 252 257 263 267 271 276 274 266 260 256 254 251 249 245 243 243
234 187 115 144 220 227 235 289 263 207 193 178 155 115 89 30 345 295 270 263 255 230 202 200 198 193 217 271 251 235 224 215 212 212 212 208 209 214 219 224 229 232 233 234 235 234 230 224 229 260 281 290 288 279 271 267 263 259 256 251 247 245 246
195 120 147 200 233 232 224 18 33 59 123 133 118 95 63 31 4 281 263 268 271 261 242 224 166 128 105 78 48 0 244 235 232 224 215 207 209 218 224 228 229 222 211 200 179 159 144 127 114 94 60 351 311 292 281 273 267 263 258 254 250 249 249
159 146 183 205 198 188 242 346 25 82 119 145 139 129 164 321 0 289 251 277 302 294 240 159 135 122 102 74 33 14 334 223 222 220 214 207 207 210 200 178 156 143 144 144 143 144 137 123 116 123 160 251 291 292 288 283 277 272 266 261 258 257 256
127 110 120 122 130 188 228 253 249 201 154 203 171 124 124 320 351 357 278 260 285 281 231 156 138 120 81 26 339 358 20 190 194 188 180 163 147 140 133 130 130 134 141 145 148 148 141 137 155 177 195 220 242 265 286 294 291 288 283 276 270 265 264
124 122 138 170 167 190 236 254 269 331 338 230 159 100 88 315 340 347 330 264 147 149 147 132 125 104 80 341 321 25 73 127 150 145 139 130 129 129 127 130 137 142 147 151 153 154 151 155 174 186 206 223 230 249 279 294 293 289 285 279 273 270 269
216 133 131 184 191 216 269 272 303 328 329 287 131 123 210 304 338 350 8 38 103 125 110 89 66 70 98 124 48 72 92 101 108 122 129 128 132 135 135 142 149 151 155 158 158 159 159 168 183 199 222 226 227 237 244 254 266 272 274 276 277 275 272
318 95 114 132 243 249 304 308 307 319 345 75 133 180 239 316 359 22 42 54 70 89 91 87 81 81 88 87 79 83 92 93 94 105 115 118 121 124 124 133 142 148 154 156 159 170 187 200 204 213 229 232 233 235 236 243 255 265 274 278 278 276 270
328 2 118 43 266 232 337 324 315 335 57 109 173 193 166 41 51 58 58 61 73 79 80 81 84 83 80 77 76 79 84 87 88 92 97 99 98 97 96 100 112 128 146 163 182 206 220 222 227 238 250 251 245 240 241 249 257 267 275 277 277 278 272
325 1 61 45 204 300 333 326 317 14 70 140 138 113 97 87 80 75 68 67 74 78 79 78 76 74 73 71 71 74 80 84 85 86 87 87 84 83 82 81 80 81 77 57 339 298 291 283 277 277 274 265 251 242 243 250 259 268 272 274 279 280 272
350 338 33 123 215 306 339 345 73 83 90 125 125 112 100 90 84 81 76 73 75 77 78 76 73 72 70 67 66 69 74 78 82 83 83 82 80 78 74 68 62 54 43 32 21 2 340 322 304 291 284 273 256 246 249 259 269 274 272 273 279 275 262
220 170 201 241 228 14 20 41 87 99 107 119 115 105 99 92 87 86 83 79 79 80 78 77 74 72 69 66 64 65 67 68 70 73 74 75 75 74 70 64 54 46 39 31 21 7 348 330 313 299 291 280 264 257 264 273 277 276 275 275 273 257 244
182 62 30 1 25 55 59 67 89 106 115 116 106 99 97 93 91 89 85 82 81 78 76 76 76 73 68 65 64 63 64 64 63 65 66 66 65 64 63 61 58 53 45 35 25 10 354 343 335 323 307 290 277 272 274 281 282 280 279 277 257 231 219
158 46 356 347 27 65 80 87 95 103 109 111 104 99 97 95 92 87 85 84 81 75 72 74 77 76 69 63 61 61 64 66 63 60 59 55 46 35 33 37 44 50 45 39 35 22 6 357 348 329 313 300 289 279 275 281 284 280 274 264 240 216 205
122 133 174 88 69 70 81 95 100 94 99 105 101 98 98 95 88 84 82 80 77 75 75 75 77 78 73 68 73 78 82 87 86 75 64 51 29 10 3 1 356 345 18 42 23 0 352 348 332 309 298 288 275 266 265 274 280 274 260 240 220 209 207
93 115 155 122 85 63 64 88 99 99 99 99 98 99 99 94 89 88 83 78 76 78 78 77 78 78 74 71 74 76 75 77 81 79 73 60 21 344 330 329 321 305 309 339 344 349 355 346 310 281 273 263 254 252 263 282 282 260 231 211 205 205 205
130 152 181 153 116 97 88 95 98 102 102 98 96 96 95 94 97 96 89 83 79 75 72 70 70 70 67 62 60 60 57 50 46 46 37 300 286 284 264 222 226 295 315 343 7 10 9 338 283 263 253 246 245 251 276 313 304 248 212 200 202 204 201
140 149 156 140 122 126 130 111 104 105 103 97 93 90 90 91 92 91 90 91 86 79 73 69 65 65 63 57 53 53 53 46 34 19 352 316 300 293 282 266 264 276 276 260 237 270 308 267 255 251 246 243 246 250 257 338 307 207 190 189 197 199 197
103 120 129 123 114 115 119 116 113 110 104 99 95 90 87 86 81 78 81 82 80 78 74 68 63 63 61 57 52 50 49 43 30 16 359 340 329 316 303 305 306 289 278 276 258 237 234 239 243 246 245 244 240 232 216 193 180 171 161 177 189 186 186
115 119 119 113 110 111 113 113 109 105 103 102 96 89 84 79 77 75 74 73 72 71 68 64 61 59 56 55 54 50 49 46 36 21 5 351 343 334 326 327 331 329 318 296 257 234 234 238 239 237 232 224 216 209 199 190 183 170 144 179 191 181 181